Starlink 34074

operational
NORAD ID: 64099 Int'l Des: 2025-110 Owner: SPXS Country: US Constellation: starlink
LEOCIRCULAR

Über Starlink 34074

Beschreibung wird geladen...

Live-Position

3D-Globus wird geladen...

Nächste Überflüge

Höhenverlauf

Altitude vs Time

uPlot chart will show altitude changes over time

Zweizeiliger Elementsatz

1 64099U 25110D 25261.00757487 .00047996 00000-0 12018-2 0 9990
2 64099 53.1578 112.4417 0001000 82.8300 277.2819 15.39632934 19394
Epoch: 18. Sept. 2025 • Age: 26 hours

Aktueller Status

Höhe 459.2 km
Geschwindigkeit 7.64 km/s
Subsatellitenpunkt -36.89°S, 38.18°E
Startdatum 23. Mai 2025
Alter 0.3 years
Typ internet

Technische Details

Klassifizierung Payload
Masse 575.00 kg
Trockenmasse 530.00 kg
Gesamtmasse 575.00 kg
Länge 0.30 m
Durchmesser 4.10 m
Spannweite 29.00 m
Form Box + pan
Hersteller SPXS
Bus-Typ Starlink V2MO
Phasenstatus In Orbit
Besitzer/Staat SPXS/US

Große Konstellationen

Loading constellations...